Find Starlink 4051

NORAD ID: 53273 Int'l Des: 2022-086 Owner: SPXS Country: US Constellation: starlink operational
LEOCIRCULAR

Live Position

Loading 3D Globe...

About Starlink 4051

Description loading...

Upcoming Passes

Passes for default location (London). Set your location on the main map for personalized predictions.

Altitude History

Loading altitude history...

Two-Line Element Set

1 53273U 22086AH 26130.10037397 -.00000065 00000-0 14032-4 0 9996
2 53273 53.2176 268.4367 0001321 87.9590 272.1554 15.08838512210467
Epoch: May 10, 2026 • Age: 21 hours

Current Status

Altitude 540.3 km
Velocity 7.60 km/s
Sub-Earth Point 25.14°N, 67.95°E
Launch Date Jul 24, 2022
Age 3.7 years
Type internet

Technical Details

Classification Payload
Mass 297.00 kg
Dry Mass 275.00 kg
Total Mass 297.00 kg
Length 0.20 m
Diameter 2.80 m
Span 9.00 m
Shape Box + pan
Manufacturer SPXS
Bus Type Starlink
Phase Status In Orbit
Owner/State SPXS/US

Most Searched